Time,TemperatureF,DewpointF,PressureIn,WindDirection,WindDirectionDegrees,WindSpeedMPH,WindSpeedGustMPH,Humidity,HourlyPrecipIn,Conditions,Clouds,dailyrainin,SoftwareType,DateUTC
2013-12-04 00:09:00,52.4,-99.9,-100.00,NE,54,1.5,4.5,-999,-99.99,n/a,n/a,-99.99,Henriksen +1-Wire,2013-12-04 06:09:00,
2013-12-04 00:19:00,52.8,-99.9,-100.00,ESE,110,1.6,5.5,-999,-99.99,n/a,n/a,-99.99,Henriksen +1-Wire,2013-12-04 06:19:00,
2013-12-04 00:29:00,53.0,-99.9,-100.00,ENE,72,1.3,4.5,-999,-99.99,n/a,n/a,-99.99,Henriksen +1-Wire,2013-12-04 06:29:00,
2013-12-04 00:39:00,52.9,-99.9,-100.00,NE,42,1.4,3.4,-999,-99.99,n/a,n/a,-99.99,Henriksen +1-Wire,2013-12-04 06:39:00,
2013-12-04 00:49:00,52.8,-99.9,-100.00,ESE,107,1.5,3.7,-999,-99.99,n/a,n/a,-99.99,Henriksen +1-Wire,2013-12-04 06:49:00,
2013-12-04 00:59:00,52.8,-99.9,-100.00,ENE,68,1.5,4.6,-999,-99.99,n/a,n/a,-99.99,Henriksen +1-Wire,2013-12-04 06:59:00,
2013-12-04 01:09:00,52.8,-99.9,-100.00,ESE,114,1.4,5.7,-999,-99.99,n/a,n/a,-99.99,Henriksen +1-Wire,2013-12-04 07:09:00,
2013-12-04 01:19:00,52.7,-99.9,-100.00,ENE,71,1.5,4.5,-999,-99.99,n/a,n/a,-99.99,Henriksen +1-Wire,2013-12-04 07:19:00,
2013-12-04 01:29:00,52.4,-99.9,-100.00,ENE,73,1.7,4.5,-999,-99.99,n/a,n/a,-99.99,Henriksen +1-Wire,2013-12-04 07:29:00,
2013-12-04 01:38:00,52.1,-99.9,-100.00,East,80,1.7,4.2,-999,-99.99,n/a,n/a,-99.99,Henriksen +1-Wire,2013-12-04 07:38:00,
2013-12-04 01:48:00,51.8,-99.9,-100.00,ENE,59,1.2,5.4,-999,-99.99,n/a,n/a,-99.99,Henriksen +1-Wire,2013-12-04 07:48:00,
2013-12-04 01:58:00,51.5,-99.9,-100.00,NE,50,1.0,3.4,-999,-99.99,n/a,n/a,-99.99,Henriksen +1-Wire,2013-12-04 07:58:00,
2013-12-04 02:09:00,51.3,-99.9,-100.00,NE,47,2.2,5.5,-999,-99.99,n/a,n/a,-99.99,Henriksen +1-Wire,2013-12-04 08:09:00,
2013-12-04 02:19:00,51.5,-99.9,-100.00,East,84,2.2,5.6,-999,-99.99,n/a,n/a,-99.99,Henriksen +1-Wire,2013-12-04 08:19:00,
2013-12-04 02:29:00,51.6,-99.9,-100.00,ENE,64,2.1,5.1,-999,-99.99,n/a,n/a,-99.99,Henriksen +1-Wire,2013-12-04 08:29:00,
2013-12-04 02:39:00,51.6,-99.9,-100.00,ENE,67,2.1,6.1,-999,-99.99,n/a,n/a,-99.99,Henriksen +1-Wire,2013-12-04 08:39:00,
2013-12-04 02:49:00,51.5,-99.9,-100.00,ESE,112,2.7,6.7,-999,-99.99,n/a,n/a,-99.99,Henriksen +1-Wire,2013-12-04 08:49:00,
2013-12-04 02:59:00,51.5,-99.9,-100.00,East,85,2.9,8.6,-999,-99.99,n/a,n/a,-99.99,Henriksen +1-Wire,2013-12-04 08:59:00,
2013-12-04 03:09:00,51.5,-99.9,-100.00,NE,49,2.7,6.7,-999,-99.99,n/a,n/a,-99.99,Henriksen +1-Wire,2013-12-04 09:09:00,
2013-12-04 03:19:00,51.4,-99.9,-100.00,East,87,2.3,6.7,-999,-99.99,n/a,n/a,-99.99,Henriksen +1-Wire,2013-12-04 09:19:00,
2013-12-04 03:29:00,51.2,-99.9,-100.00,ESE,114,3.2,6.4,-999,-99.99,n/a,n/a,-99.99,Henriksen +1-Wire,2013-12-04 09:29:00,
2013-12-04 03:39:00,51.2,-99.9,-100.00,East,88,2.6,7.4,-999,-99.99,n/a,n/a,-99.99,Henriksen +1-Wire,2013-12-04 09:39:00,
2013-12-04 03:48:00,51.1,-99.9,-100.00,ENE,66,2.0,5.5,-999,-99.99,n/a,n/a,-99.99,Henriksen +1-Wire,2013-12-04 09:48:00,
2013-12-04 03:58:00,51.0,-99.9,-100.00,ENE,71,2.6,6.9,-999,-99.99,n/a,n/a,-99.99,Henriksen +1-Wire,2013-12-04 09:58:00,
2013-12-04 04:09:00,50.8,-99.9,-100.00,East,89,3.0,6.8,-999,-99.99,n/a,n/a,-99.99,Henriksen +1-Wire,2013-12-04 10:09:00,
2013-12-04 04:19:00,50.7,-99.9,-100.00,NE,55,3.2,7.6,-999,-99.99,n/a,n/a,-99.99,Henriksen +1-Wire,2013-12-04 10:19:00,
2013-12-04 04:29:00,50.6,-99.9,-100.00,NE,51,3.2,7.4,-999,-99.99,n/a,n/a,-99.99,Henriksen +1-Wire,2013-12-04 10:29:00,
2013-12-04 04:39:00,50.5,-99.9,-100.00,ENE,64,2.7,7.5,-999,-99.99,n/a,n/a,-99.99,Henriksen +1-Wire,2013-12-04 10:39:00,
2013-12-04 04:49:00,50.4,-99.9,-100.00,NE,52,3.0,7.5,-999,-99.99,n/a,n/a,-99.99,Henriksen +1-Wire,2013-12-04 10:49:00,
2013-12-04 04:59:00,50.4,-99.9,-100.00,ENE,75,2.8,8.6,-999,-99.99,n/a,n/a,-99.99,Henriksen +1-Wire,2013-12-04 10:59:00,
2013-12-04 05:09:00,50.3,-99.9,-100.00,ENE,74,3.0,7.0,-999,-99.99,n/a,n/a,-99.99,Henriksen +1-Wire,2013-12-04 11:09:00,
2013-12-04 05:19:00,50.3,-99.9,-100.00,East,95,2.3,5.8,-999,-99.99,n/a,n/a,-99.99,Henriksen +1-Wire,2013-12-04 11:19:00,
2013-12-04 05:29:00,50.1,-99.9,-100.00,ENE,77,1.6,6.8,-999,-99.99,n/a,n/a,-99.99,Henriksen +1-Wire,2013-12-04 11:29:00,
2013-12-04 05:38:00,49.8,-99.9,-100.00,East,83,1.7,4.5,-999,-99.99,n/a,n/a,-99.99,Henriksen +1-Wire,2013-12-04 11:38:00,
2013-12-04 05:48:00,49.5,-99.9,-100.00,ESE,114,1.3,3.4,-999,-99.99,n/a,n/a,-99.99,Henriksen +1-Wire,2013-12-04 11:48:00,
2013-12-04 05:58:00,49.2,-99.9,-100.00,ESE,113,1.2,3.4,-999,-99.99,n/a,n/a,-99.99,Henriksen +1-Wire,2013-12-04 11:58:00,
2013-12-04 06:00:00,49.2,-99.9,-100.00,ESE,111,1.4,4.4,-999,-99.99,n/a,n/a,-99.99,Henriksen +1-Wire,2013-12-04 12:00:00,
2013-12-04 06:09:00,49.0,-99.9,-100.00,ESE,104,1.3,4.4,-999,-99.99,n/a,n/a,-99.99,Henriksen +1-Wire,2013-12-04 12:09:00,
2013-12-04 06:19:00,48.7,-99.9,-100.00,East,101,1.8,4.5,-999,-99.99,n/a,n/a,-99.99,Henriksen +1-Wire,2013-12-04 12:19:00,
2013-12-04 06:29:00,48.6,-99.9,-100.00,East,97,1.3,5.0,-999,-99.99,n/a,n/a,-99.99,Henriksen +1-Wire,2013-12-04 12:29:00,
2013-12-04 06:39:00,48.6,-99.9,-100.00,ESE,109,1.5,5.4,-999,-99.99,n/a,n/a,-99.99,Henriksen +1-Wire,2013-12-04 12:39:00,
2013-12-04 06:49:00,48.8,-99.9,-100.00,ENE,76,2.0,5.5,-999,-99.99,n/a,n/a,-99.99,Henriksen +1-Wire,2013-12-04 12:49:00,
2013-12-04 06:59:00,49.0,-99.9,-100.00,ENE,68,2.0,6.4,-999,-99.99,n/a,n/a,-99.99,Henriksen +1-Wire,2013-12-04 12:59:00,
2013-12-04 07:09:00,49.1,-99.9,-100.00,ENE,65,1.9,6.5,-999,-99.99,n/a,n/a,-99.99,Henriksen +1-Wire,2013-12-04 13:09:00,
2013-12-04 07:19:00,49.1,-99.9,-100.00,NE,53,1.7,6.6,-999,-99.99,n/a,n/a,-99.99,Henriksen +1-Wire,2013-12-04 13:19:00,
2013-12-04 07:29:00,49.1,-99.9,-100.00,East,88,0.2,3.3,-999,-99.99,n/a,n/a,-99.99,Henriksen +1-Wire,2013-12-04 13:29:00,
2013-12-04 07:38:00,48.9,-99.9,-100.00,ESE,116,1.9,3.4,-999,-99.99,n/a,n/a,-99.99,Henriksen +1-Wire,2013-12-04 13:38:00,
2013-12-04 07:48:00,49.2,-99.9,-100.00,ESE,113,1.8,3.4,-999,-99.99,n/a,n/a,-99.99,Henriksen +1-Wire,2013-12-04 13:48:00,
2013-12-04 07:58:00,49.8,-99.9,-100.00,ESE,112,2.3,5.4,-999,-99.99,n/a,n/a,-99.99,Henriksen +1-Wire,2013-12-04 13:58:00,
2013-12-04 08:00:00,50.0,-99.9,-100.00,ESE,117,2.4,5.4,-999,-99.99,n/a,n/a,-99.99,Henriksen +1-Wire,2013-12-04 14:00:00,
2013-12-04 08:09:00,50.9,-99.9,-100.00,ESE,113,2.2,4.6,-999,-99.99,n/a,n/a,-99.99,Henriksen +1-Wire,2013-12-04 14:09:00,
2013-12-04 08:19:00,51.8,-99.9,-100.00,ESE,112,3.0,5.5,-999,-99.99,n/a,n/a,-99.99,Henriksen +1-Wire,2013-12-04 14:19:00,
2013-12-04 08:29:00,52.8,-99.9,-100.00,ESE,112,4.0,6.8,-999,-99.99,n/a,n/a,-99.99,Henriksen +1-Wire,2013-12-04 14:29:00,
2013-12-04 08:39:00,54.2,-99.9,-100.00,ESE,112,3.2,6.5,-999,-99.99,n/a,n/a,-99.99,Henriksen +1-Wire,2013-12-04 14:39:00,
2013-12-04 08:49:00,56.1,-99.9,-100.00,ESE,106,3.0,7.5,-999,-99.99,n/a,n/a,-99.99,Henriksen +1-Wire,2013-12-04 14:49:00,
2013-12-04 08:59:00,57.5,-99.9,-100.00,ENE,64,4.3,9.7,-999,-99.99,n/a,n/a,-99.99,Henriksen +1-Wire,2013-12-04 14:59:00,
2013-12-04 09:09:00,58.8,-99.9,-100.00,ENE,67,3.4,9.0,-999,-99.99,n/a,n/a,-99.99,Henriksen +1-Wire,2013-12-04 15:09:00,
2013-12-04 09:19:00,60.3,-99.9,-100.00,East,99,3.3,9.8,-999,-99.99,n/a,n/a,-99.99,Henriksen +1-Wire,2013-12-04 15:19:00,
2013-12-04 09:29:00,61.8,-99.9,-100.00,East,93,3.8,8.8,-999,-99.99,n/a,n/a,-99.99,Henriksen +1-Wire,2013-12-04 15:29:00,
2013-12-04 09:38:00,62.6,-99.9,-100.00,NE,55,3.1,9.7,-999,-99.99,n/a,n/a,-99.99,Henriksen +1-Wire,2013-12-04 15:38:00,
2013-12-04 09:48:00,63.4,-99.9,-100.00,East,86,3.7,8.4,-999,-99.99,n/a,n/a,-99.99,Henriksen +1-Wire,2013-12-04 15:48:00,
2013-12-04 10:00:00,64.3,-99.9,-100.00,East,82,3.1,7.7,-999,-99.99,n/a,n/a,-99.99,Henriksen +1-Wire,2013-12-04 16:00:00,
2013-12-04 10:09:00,65.3,-99.9,-100.00,East,99,3.2,9.0,-999,-99.99,n/a,n/a,-99.99,Henriksen +1-Wire,2013-12-04 16:09:00,
2013-12-04 10:19:00,66.7,-99.9,-100.00,ENE,74,2.9,9.7,-999,-99.99,n/a,n/a,-99.99,Henriksen +1-Wire,2013-12-04 16:19:00,
2013-12-04 10:29:00,67.9,-99.9,-100.00,ESE,110,2.0,8.8,-999,-99.99,n/a,n/a,-99.99,Henriksen +1-Wire,2013-12-04 16:29:00,
2013-12-04 10:39:00,69.6,-99.9,-100.00,ESE,111,2.0,6.7,-999,-99.99,n/a,n/a,-99.99,Henriksen +1-Wire,2013-12-04 16:39:00,
2013-12-04 10:49:00,71.3,-99.9,-100.00,ESE,112,2.7,5.5,-999,-99.99,n/a,n/a,-99.99,Henriksen +1-Wire,2013-12-04 16:49:00,
2013-12-04 10:59:00,72.6,-99.9,-100.00,ESE,111,1.7,6.8,-999,-99.99,n/a,n/a,-99.99,Henriksen +1-Wire,2013-12-04 16:59:00,
2013-12-04 11:09:00,73.7,-99.9,-100.00,ESE,111,2.7,6.4,-999,-99.99,n/a,n/a,-99.99,Henriksen +1-Wire,2013-12-04 17:09:00,
2013-12-04 11:19:00,74.7,-99.9,-100.00,ENE,76,2.5,7.6,-999,-99.99,n/a,n/a,-99.99,Henriksen +1-Wire,2013-12-04 17:19:00,
2013-12-04 11:29:00,76.1,-99.9,-100.00,NE,47,2.8,6.6,-999,-99.99,n/a,n/a,-99.99,Henriksen +1-Wire,2013-12-04 17:29:00,
2013-12-04 11:38:00,77.3,-99.9,-100.00,NE,39,1.7,6.4,-999,-99.99,n/a,n/a,-99.99,Henriksen +1-Wire,2013-12-04 17:38:00,
2013-12-04 11:48:00,78.0,-99.9,-100.00,NE,39,1.6,9.4,-999,-99.99,n/a,n/a,-99.99,Henriksen +1-Wire,2013-12-04 17:48:00,
2013-12-04 11:59:00,78.9,-99.9,-100.00,East,79,1.5,8.7,-999,-99.99,n/a,n/a,-99.99,Henriksen +1-Wire,2013-12-04 17:59:00,
2013-12-04 12:09:00,79.7,-99.9,-100.00,NE,47,3.1,7.5,-999,-99.99,n/a,n/a,-99.99,Henriksen +1-Wire,2013-12-04 18:09:00,
2013-12-04 12:19:00,80.4,-99.9,-100.00,ENE,73,1.2,5.6,-999,-99.99,n/a,n/a,-99.99,Henriksen +1-Wire,2013-12-04 18:19:00,
2013-12-04 12:29:00,81.5,-99.9,-100.00,ENE,74,2.3,7.2,-999,-99.99,n/a,n/a,-99.99,Henriksen +1-Wire,2013-12-04 18:29:00,
2013-12-04 12:39:00,81.9,-99.9,-100.00,ENE,71,3.4,6.4,-999,-99.99,n/a,n/a,-99.99,Henriksen +1-Wire,2013-12-04 18:39:00,
2013-12-04 12:49:00,82.3,-99.9,-100.00,North,1,1.9,6.7,-999,-99.99,n/a,n/a,-99.99,Henriksen +1-Wire,2013-12-04 18:49:00,
2013-12-04 12:59:00,83.0,-99.9,-100.00,North,5,3.0,6.6,-999,-99.99,n/a,n/a,-99.99,Henriksen +1-Wire,2013-12-04 18:59:00,
2013-12-04 13:09:00,83.6,-99.9,-100.00,ESE,105,2.0,7.7,-999,-99.99,n/a,n/a,-99.99,Henriksen +1-Wire,2013-12-04 19:09:00,
2013-12-04 13:19:00,84.0,-99.9,-100.00,ENE,69,2.7,5.6,-999,-99.99,n/a,n/a,-99.99,Henriksen +1-Wire,2013-12-04 19:19:00,
2013-12-04 13:28:00,84.1,-99.9,-100.00,East,99,1.7,5.5,-999,-99.99,n/a,n/a,-99.99,Henriksen +1-Wire,2013-12-04 19:28:00,
2013-12-04 13:38:00,84.6,-99.9,-100.00,East,79,1.0,6.5,-999,-99.99,n/a,n/a,-99.99,Henriksen +1-Wire,2013-12-04 19:38:00,
2013-12-04 13:48:00,85.3,-99.9,-100.00,ESE,102,1.8,4.4,-999,-99.99,n/a,n/a,-99.99,Henriksen +1-Wire,2013-12-04 19:48:00,
2013-12-04 13:59:00,85.6,-99.9,-100.00,ENE,75,0.9,6.8,-999,-99.99,n/a,n/a,-99.99,Henriksen +1-Wire,2013-12-04 19:59:00,
2013-12-04 14:09:00,86.4,-99.9,-100.00,North,360,2.3,5.5,-999,-99.99,n/a,n/a,-99.99,Henriksen +1-Wire,2013-12-04 20:09:00,
2013-12-04 14:19:00,86.9,-99.9,-100.00,East,81,1.4,6.4,-999,-99.99,n/a,n/a,-99.99,Henriksen +1-Wire,2013-12-04 20:19:00,
2013-12-04 14:29:00,86.6,-99.9,-100.00,East,80,1.3,5.4,-999,-99.99,n/a,n/a,-99.99,Henriksen +1-Wire,2013-12-04 20:29:00,
2013-12-04 14:39:00,86.0,-99.9,-100.00,East,86,1.5,3.4,-999,-99.99,n/a,n/a,-99.99,Henriksen +1-Wire,2013-12-04 20:39:00,
2013-12-04 14:49:00,85.5,-99.9,-100.00,ENE,76,1.0,4.4,-999,-99.99,n/a,n/a,-99.99,Henriksen +1-Wire,2013-12-04 20:49:00,
2013-12-04 14:59:00,85.5,-99.9,-100.00,North,3,1.4,4.4,-999,-99.99,n/a,n/a,-99.99,Henriksen +1-Wire,2013-12-04 20:59:00,
2013-12-04 15:09:00,85.3,-99.9,-100.00,East,99,1.1,2.3,-999,-99.99,n/a,n/a,-99.99,Henriksen +1-Wire,2013-12-04 21:09:00,
2013-12-04 15:19:00,84.0,-99.9,-100.00,East,97,0.8,4.4,-999,-99.99,n/a,n/a,-99.99,Henriksen +1-Wire,2013-12-04 21:19:00,
2013-12-04 15:29:00,82.4,-99.9,-100.00,NE,34,1.2,4.5,-999,-99.99,n/a,n/a,-99.99,Henriksen +1-Wire,2013-12-04 21:29:00,
2013-12-04 15:39:00,80.6,-99.9,-100.00,East,95,2.0,4.5,-999,-99.99,n/a,n/a,-99.99,Henriksen +1-Wire,2013-12-04 21:39:00,
2013-12-04 15:48:00,78.5,-99.9,-100.00,East,84,1.5,4.5,-999,-99.99,n/a,n/a,-99.99,Henriksen +1-Wire,2013-12-04 21:48:00,
2013-12-04 16:00:00,76.6,-99.9,-100.00,ESE,108,1.2,4.3,-999,-99.99,n/a,n/a,-99.99,Henriksen +1-Wire,2013-12-04 22:00:00,
2013-12-04 16:10:00,74.9,-99.9,-100.00,ESE,114,2.9,5.5,-999,-99.99,n/a,n/a,-99.99,Henriksen +1-Wire,2013-12-04 22:10:00,
2013-12-04 16:20:00,73.3,-99.9,-100.00,ESE,117,3.0,6.3,-999,-99.99,n/a,n/a,-99.99,Henriksen +1-Wire,2013-12-04 22:20:00,
2013-12-04 16:30:00,72.5,-99.9,-100.00,ESE,105,1.6,4.4,-999,-99.99,n/a,n/a,-99.99,Henriksen +1-Wire,2013-12-04 22:30:00,
2013-12-04 16:40:00,72.0,-99.9,-100.00,East,91,2.3,5.5,-999,-99.99,n/a,n/a,-99.99,Henriksen +1-Wire,2013-12-04 22:40:00,
2013-12-04 16:50:00,71.5,-99.9,-100.00,ESE,113,1.6,5.3,-999,-99.99,n/a,n/a,-99.99,Henriksen +1-Wire,2013-12-04 22:50:00,
2013-12-04 17:00:00,70.9,-99.9,-100.00,ESE,115,0.6,6.7,-999,-99.99,n/a,n/a,-99.99,Henriksen +1-Wire,2013-12-04 23:00:00,
2013-12-04 17:20:00,69.5,-99.9,-100.00,NE,45,0.6,0.0,-999,-99.99,n/a,n/a,-99.99,Henriksen +1-Wire,2013-12-04 23:20:00,
2013-12-04 17:30:00,69.0,-99.9,-100.00,NE,45,0.6,0.0,-999,-99.99,n/a,n/a,-99.99,Henriksen +1-Wire,2013-12-04 23:30:00,
2013-12-04 17:40:00,68.4,-99.9,-100.00,NE,45,0.6,0.0,-999,-99.99,n/a,n/a,-99.99,Henriksen +1-Wire,2013-12-04 23:40:00,
2013-12-04 17:50:00,67.5,-99.9,-100.00,NE,45,0.6,0.0,-999,-99.99,n/a,n/a,-99.99,Henriksen +1-Wire,2013-12-04 23:50:00,
2013-12-04 18:00:00,66.7,-99.9,-100.00,NE,45,0.6,0.0,-999,-99.99,n/a,n/a,-99.99,Henriksen +1-Wire,2013-12-05 00:00:00,
2013-12-04 18:10:00,65.5,-99.9,-100.00,NE,45,0.6,0.0,-999,-99.99,n/a,n/a,-99.99,Henriksen +1-Wire,2013-12-05 00:10:00,
2013-12-04 18:20:00,64.4,-99.9,-100.00,NE,45,0.6,0.0,-999,-99.99,n/a,n/a,-99.99,Henriksen +1-Wire,2013-12-05 00:20:00,
2013-12-04 18:30:00,63.1,-99.9,-100.00,NE,45,0.6,0.0,-999,-99.99,n/a,n/a,-99.99,Henriksen +1-Wire,2013-12-05 00:30:00,
2013-12-04 18:40:00,62.2,-99.9,-100.00,NE,45,0.6,0.0,-999,-99.99,n/a,n/a,-99.99,Henriksen +1-Wire,2013-12-05 00:40:00,
2013-12-04 18:50:00,61.7,-99.9,-100.00,NE,45,0.6,0.0,-999,-99.99,n/a,n/a,-99.99,Henriksen +1-Wire,2013-12-05 00:50:00,
2013-12-04 19:00:00,61.2,-99.9,-100.00,NE,45,0.6,0.0,-999,-99.99,n/a,n/a,-99.99,Henriksen +1-Wire,2013-12-05 01:00:00,
2013-12-04 19:20:00,60.7,-99.9,-100.00,NE,45,0.6,0.0,-999,-99.99,n/a,n/a,-99.99,Henriksen +1-Wire,2013-12-05 01:20:00,
2013-12-04 19:30:00,60.5,-99.9,-100.00,NE,45,0.6,0.0,-999,-99.99,n/a,n/a,-99.99,Henriksen +1-Wire,2013-12-05 01:30:00,
2013-12-04 19:40:00,60.0,-99.9,-100.00,NE,45,0.6,0.0,-999,-99.99,n/a,n/a,-99.99,Henriksen +1-Wire,2013-12-05 01:40:00,
2013-12-04 19:50:00,59.3,-99.9,-100.00,NE,45,0.6,0.0,-999,-99.99,n/a,n/a,-99.99,Henriksen +1-Wire,2013-12-05 01:50:00,
2013-12-04 20:00:00,58.6,-99.9,-100.00,NE,45,0.6,0.0,-999,-99.99,n/a,n/a,-99.99,Henriksen +1-Wire,2013-12-05 02:00:00,
2013-12-04 20:10:00,58.2,-99.9,-100.00,NE,45,0.6,0.0,-999,-99.99,n/a,n/a,-99.99,Henriksen +1-Wire,2013-12-05 02:10:00,
2013-12-04 20:20:00,57.6,-99.9,-100.00,NE,45,0.6,0.0,-999,-99.99,n/a,n/a,-99.99,Henriksen +1-Wire,2013-12-05 02:20:00,
2013-12-04 20:30:00,56.9,-99.9,-100.00,NE,45,0.6,0.0,-999,-99.99,n/a,n/a,-99.99,Henriksen +1-Wire,2013-12-05 02:30:00,
2013-12-04 20:40:00,56.1,-99.9,-100.00,NE,45,0.6,0.0,-999,-99.99,n/a,n/a,-99.99,Henriksen +1-Wire,2013-12-05 02:40:00,
2013-12-04 20:50:00,55.6,-99.9,-100.00,NE,45,0.6,0.0,-999,-99.99,n/a,n/a,-99.99,Henriksen +1-Wire,2013-12-05 02:50:00,
2013-12-04 21:00:00,55.3,-99.9,-100.00,NE,45,0.6,0.0,-999,-99.99,n/a,n/a,-99.99,Henriksen +1-Wire,2013-12-05 03:00:00,
2013-12-04 21:10:00,54.6,-99.9,-100.00,NE,45,0.6,0.0,-999,-99.99,n/a,n/a,-99.99,Henriksen +1-Wire,2013-12-05 03:10:00,
2013-12-04 21:20:00,53.8,-99.9,-100.00,NE,45,0.6,0.0,-999,-99.99,n/a,n/a,-99.99,Henriksen +1-Wire,2013-12-05 03:20:00,
2013-12-04 21:30:00,53.2,-99.9,-100.00,NE,45,0.6,0.0,-999,-99.99,n/a,n/a,-99.99,Henriksen +1-Wire,2013-12-05 03:30:00,
2013-12-04 21:40:00,52.5,-99.9,-100.00,NE,45,0.6,0.0,-999,-99.99,n/a,n/a,-99.99,Henriksen +1-Wire,2013-12-05 03:40:00,
2013-12-04 21:50:00,51.8,-99.9,-100.00,NE,45,0.6,0.0,-999,-99.99,n/a,n/a,-99.99,Henriksen +1-Wire,2013-12-05 03:50:00,
2013-12-04 22:00:00,51.1,-99.9,-100.00,NE,45,0.6,0.0,-999,-99.99,n/a,n/a,-99.99,Henriksen +1-Wire,2013-12-05 04:00:00,
2013-12-04 22:10:00,50.5,-99.9,-100.00,NE,45,0.6,0.0,-999,-99.99,n/a,n/a,-99.99,Henriksen +1-Wire,2013-12-05 04:10:00,
2013-12-04 22:20:00,50.0,-99.9,-100.00,NE,45,0.6,0.0,-999,-99.99,n/a,n/a,-99.99,Henriksen +1-Wire,2013-12-05 04:20:00,
2013-12-04 22:30:00,49.5,-99.9,-100.00,NE,45,0.6,0.0,-999,-99.99,n/a,n/a,-99.99,Henriksen +1-Wire,2013-12-05 04:30:00,
2013-12-04 22:40:00,49.1,-99.9,-100.00,NE,45,0.6,0.0,-999,-99.99,n/a,n/a,-99.99,Henriksen +1-Wire,2013-12-05 04:40:00,
2013-12-04 22:50:00,49.0,-99.9,-100.00,NE,45,0.6,0.0,-999,-99.99,n/a,n/a,-99.99,Henriksen +1-Wire,2013-12-05 04:50:00,
2013-12-04 23:00:00,48.7,-99.9,-100.00,NE,45,0.6,0.0,-999,-99.99,n/a,n/a,-99.99,Henriksen +1-Wire,2013-12-05 05:00:00,
2013-12-04 23:10:00,48.3,-99.9,-100.00,NE,45,0.6,0.0,-999,-99.99,n/a,n/a,-99.99,Henriksen +1-Wire,2013-12-05 05:10:00,
2013-12-04 23:20:00,47.7,-99.9,-100.00,NE,45,0.6,0.0,-999,-99.99,n/a,n/a,-99.99,Henriksen +1-Wire,2013-12-05 05:20:00,
2013-12-04 23:30:00,47.3,-99.9,-100.00,NE,45,0.6,0.0,-999,-99.99,n/a,n/a,-99.99,Henriksen +1-Wire,2013-12-05 05:30:00,
2013-12-04 23:40:00,46.9,-99.9,-100.00,NE,45,0.6,0.0,-999,-99.99,n/a,n/a,-99.99,Henriksen +1-Wire,2013-12-05 05:40:00,
2013-12-04 23:50:00,46.3,-99.9,-100.00,NE,45,0.6,0.0,-999,-99.99,n/a,n/a,-99.99,Henriksen +1-Wire,2013-12-05 05:50:00,